Regional Weather Roundup
Issued by NWS

Home | Current Version | Previous Version | Graphics & Text | Print | Product List | Glossary On
Versions: 1 2 3 4 5 6 7 8 9 10 11 12 13 14 15 16 17 18 19 20 21 22 23 24 25 26 27 28 29 30 31 32 33 34 35 36 37 38 39 40 41 42 43 44 45 46 47 48 49 50
000
ASUS43 KFSD 011610
RWRSD

WEATHER ROUNDUP FOR SOUTH DAKOTA
NATIONAL WEATHER SERVICE SIOUX FALLS SD
1100 AM CDT WED APR 01 2015

NOTE: "FAIR" INDICATES FEW OR NO CLOUDS BELOW 12,000 FEET WITH NO
SIGNIFICANT WEATHER AND/OR OBSTRUCTIONS TO VISIBILITY.


SDZ001>005-009-010-012>017-011700-
NORTHWEST AND NORTH CENTRAL SOUTH DAKOTA

CITY           SKY/WX    TMP DP  RH WIND       PRES   REMARKS
BUFFALO          N/A     53  24  32 NW37G45   29.62R
FAITH            N/A     56  34  43 NW35G40   29.61R
MOBRIDGE       MOSUNNY   62  40  44 NW30G37   29.46R
$$

SDZ012>016-024>037-041>051-057-063-072>074-011700-
SOUTHWEST AND SOUTH CENTRAL SOUTH DAKOTA

CITY           SKY/WX    TMP DP  RH WIND       PRES   REMARKS
RAPID CTY ARPT PTSUNNY   54  35  48 NW33G41   29.66R
PIERRE         CLOUDY    59  37  44 NW25G36   29.51R
CUSTER         PTSUNNY   54  30  40 NE5       29.70R
ELLSWORTH AFB  PTSUNNY   53  36  51 NW31G43   29.67R
PHILIP         PTSUNNY   60  36  40 NW32G41   29.59R
PINE RIDGE     CLOUDY    55  34  45 N12       29.69R
SPEARFISH      PTSUNNY   48  32  53 NW20G30   29.75R
WINNER         FAIR      69  28  21 W29G35    29.54R
$$

SDZ004>011-016>023-039-040-011700-
NORTHEAST SOUTH DAKOTA

CITY           SKY/WX    TMP DP  RH WIND       PRES   REMARKS
ABERDEEN       CLOUDY    65  35  33 S15       29.41F
WATERTOWN      CLOUDY    65  41  41 S31G38    29.49R
BROOKINGS      CLOUDY    63  39  42 S29G38    29.54F
SISSETON         N/A     67  39  35 SW39G49   29.36F
$$

SDZ017-020-022-023-036>040-048>070-011700-
SOUTHEAST SOUTH DAKOTA

CITY           SKY/WX    TMP DP  RH WIND       PRES   REMARKS
SIOUX FALLS    PTSUNNY   69  40  34 S22G33    29.60F
HURON          CLOUDY    68  38  33 S15       29.48R
CHAMBERLAIN    CLOUDY    71  40  31 W14G20    29.49S
MITCHELL       CLOUDY    69  41  36 SW16G26   29.54R
YANKTON        MOSUNNY   70  43  37 S18G33    29.58F
$$

ABBREVIATIONS USED IN REMARKS
   TC - TEMPERATURE IN CELSIUS
  WCI - WIND CHILL INDEX
   HX - HEAT INDEX
  VSB - VISIBILITY




USA.gov is the U.S. government's official web portal to all federal, state and local government web resources and services.